Location: Champignolles
(47.0543°N, 4.5663°E)
Time: 07:52:58
(UTC+00:00)

Cosmos 923 Rocket - Pass Details

Date: 20 April 2021
Orbit: 759 x 785 km, 74.0° (Epoch: 13 May)

Event Time Altitude Azimuth Distance (km) Brightness Sun altitude
Rises 03:23:27 0° 320° (NW) 3,231 7.2 -13.3°
Reaches altitude 10° 03:27:02 10° 295° (WNW) 2,303 6.2 -12.8°
Maximum altitude 03:29:28 13° 267° (W) 2,072 5.7 -12.4°
Enters shadow 03:29:30 13° 266° (W) 2,072 5.7 -12.4°
